Flag for Canada Weather past 2 weeks in Red Deer, Alberta, Canada

Now
73 °F

Partly sunny.


Feels Like: 77 °F
Forecast: 47 / 74 °F
Wind: 6 mph from South

Location: Red Deer

Current Time: May 27, 2015 at 4:46:41 PM

Latest Report: May 27, 2015 at 4:00 PM


Visibility: 15 mi

Pressure: 29.93 "Hg

Humidity: 33%

Dew point: 43 °F

Location of Red DeerLocation

Historic Weather in Red Deer — Graph

°F

Red Deer temperature yesterday

Maximum temperature yesterday: 75 °F (at 1:00 PM)
Minimum temperature yesterday: 43 °F (at 5:00 AM)
Average temperature yesterday: 61 °F

Past Weeks' High & Low Weather Summary

 TemperatureHumidityPressure
High77 °F (May 23, 4:00 PM)100% (May 16, 1:00 PM)30.49 "Hg (May 16, 1:00 PM)
Low30 °F (May 17, 6:00 AM)11% (May 23, 3:00 PM)29.84 "Hg (May 25, 7:00 PM)
Average54 °F47%30.10 "Hg
* Reported May 12 3:00 PM — May 27 3:00 PM, Red Deer, Weather by CustomWeather, © 2015

Note: Actual official high and low records may vary slightly from our data, if they occured in-between our weather recording intervals... More about our weather records

Advertising

Red Deer weather history for previous 24 hours

 ConditionsComfort  
Time TempWeatherWind HumidityBarometerVisibility
3:00 PM
Wed, May 27
73 °FPartly sunny.6 mph33%29.93 "Hg15 mi
2:00 PM72 °FScattered clouds.6 mph36%29.95 "Hg15 mi
1:00 PM70 °FPassing clouds.6 mph38%29.98 "Hg15 mi
12:00 PM68 °FPartly sunny.6 mph40%29.99 "Hg15 mi
11:00 AM66 °FBroken clouds.6 mph46%30.00 "Hg12 mi
10:00 AM63 °FPartly sunny.3 mph52%30.01 "Hg12 mi
9:00 AM57 °FScattered clouds.3 mph67%30.03 "Hg12 mi
8:00 AM52 °FPartly sunny.3 mph77%30.04 "Hg12 mi
7:00 AM48 °FPartly sunny.2 mph87%30.05 "Hg12 mi
6:00 AM45 °FPassing clouds.3 mph93%30.06 "Hg12 mi
5:00 AM46 °FPartly cloudy.3 mph87%30.05 "Hg12 mi
4:00 AM50 °FPassing clouds.6 mph82%30.03 "Hg15 mi
3:00 AM50 °FPartly cloudy.8 mph88%30.02 "Hg15 mi
2:00 AM52 °FPassing clouds.8 mph82%30.02 "Hg15 mi
1:00 AM52 °FOvercast.2 mph82%30.02 "Hg15 mi
12:00 AM55 °FMostly cloudy.6 mph72%30.01 "Hg15 mi
11:00 PM
Tue, May 26
55 °FScattered showers. Mostly cloudy.7 mph77%30.02 "Hg15 mi
10:46 PM57 °FScattered showers. Mostly cloudy.3 mph67%30.02 "Hg15 mi
10:00 PM57 °FSprinkles. Mostly cloudy.13 mph67%30.02 "Hg15 mi
9:00 PM59 °FCloudy.9 mph63%30.03 "Hg15 mi
8:00 PM66 °FMostly cloudy.9 mph40%29.99 "Hg15 mi
7:00 PM68 °FPartly sunny.8 mph35%29.98 "Hg15 mi
6:00 PM68 °FScattered showers. Partly sunny.2 mph40%30.01 "Hg15 mi
5:00 PM66 °FPartly sunny.12 mph43%30.01 "Hg15 mi
4:00 PM70 °FPartly sunny.17 mph38%29.99 "Hg15 mi
Weather by CustomWeather, © 2015

See weather overviewHow to use our weather pages